Weather History for Chillicothe, MO

Change the Weather History Date:

Thursday, July 4, 2013

  Actual Average (KIRK) Record (KIRK)
Temperature  
Mean Temperature 70 °F 74 °F  
Max Temperature 84 °F 84 °F 108 °F (1936)
Min Temperature 55 °F 64 °F 48 °F (1967)
Degree Days  
Heating Degree Days 0 0  
Month to date heating degree days 0  
Since 1 June heating degree days 16  
Since 1 July heating degree days 0  
Cooling Degree Days 4 9  
Month to date cooling degree days 36  
Year to date cooling degree days 290  
Since 1 June cooling degree days 228  
Growing Degree Days 20 (Base 50)    
Moisture  
Dew Point 57 °F    
Average Humidity 63    
Maximum Humidity 93    
Minimum Humidity 37    
Precipitation  
Precipitation 0.00 in 0.12 in 2.83 in (1974)
Month to date precipitation 0.47  
Year to date precipitation 19.40  
Sea Level Pressure  
Sea Level Pressure 30.01 in    
Wind  
Wind Speed 2 mph (SSE)    
Max Wind Speed 7 mph    
Max Gust Speed -    
T = Trace of Precipitation, MM = Missing Value Source: NWS Daily Summary

Daily Weather History Graph

Daily Weather History Graph

Search for Another Location

Airport:

Trip Planner

Search our weather history database for the weather conditions in past years. The results will help you decide how hot, cold, wet, or windy it might be!

Date:

Astronomy

Jul. 04, 2013 Rise Set
Actual Time 5:51 AM CDT 8:45 PM CDT
Civil Twilight 5:19 AM CDT 9:18 PM CDT
Nautical Twilight 4:38 AM CDT 9:59 PM CDT
Astronomical Twilight 3:50 AM CDT 10:46 PM CDT
Moon 3:08 AM CDT (7/4) 5:51 PM CDT (7/4)
Length of Visible Light 15h 59m
Length of Day
14h 54m
Waning Crescent, 11% of the Moon is Illuminated
Jul 4
Waning Crescent
Jul 8
New
Jul 15
First Quarter
Jul 22
Full
Jul 29
Last Quarter

Hourly Weather History & Observations

Time (CDT) Temp. Heat Index Dew Point Humidity Pressure Visibility Wind Dir Wind Speed Gust Speed Precip Events Conditions
12:52 AM 61.0 °F - 57.0 °F 87% 30.02 in - Calm Calm - N/A   Unknown
1:52 AM 60.1 °F - 57.0 °F 90% 30.02 in - Calm Calm - N/A   Unknown
2:52 AM 59.0 °F - 55.9 °F 90% 30.02 in - Calm Calm - N/A   Unknown
3:52 AM 57.0 °F - 55.0 °F 93% 30.02 in - Calm Calm - N/A   Unknown
4:52 AM 57.0 °F - 55.0 °F 93% 30.04 in - Calm Calm - N/A   Unknown
5:52 AM 55.9 °F - 54.0 °F 93% 30.05 in - Calm Calm - N/A   Unknown
6:52 AM 59.0 °F - 55.9 °F 90% 30.05 in - Calm Calm - N/A   Unknown
7:52 AM 64.0 °F - 57.9 °F 80% 30.06 in - ESE 3.5 mph - N/A   Unknown
8:52 AM 70.0 °F - 59.0 °F 68% 30.06 in - SSE 4.6 mph - N/A   Unknown
9:52 AM 73.0 °F - 60.1 °F 64% 30.05 in - SSE 4.6 mph - N/A   Unknown
10:52 AM 78.1 °F - 59.0 °F 52% 30.04 in - South 6.9 mph - N/A   Unknown
11:52 AM 81.0 °F 81.6 °F 60.1 °F 49% 30.04 in - Variable 3.5 mph - N/A   Unknown
12:52 PM 82.0 °F 81.7 °F 57.0 °F 42% 30.03 in - Calm Calm - N/A   Unknown
1:52 PM 84.0 °F 83.5 °F 57.9 °F 41% 30.02 in - Calm Calm - N/A   Unknown
2:52 PM 84.0 °F 83.8 °F 59.0 °F 43% 30.00 in - Calm Calm - N/A   Unknown
3:52 PM 82.9 °F 82.6 °F 57.9 °F 42% 29.99 in - Variable 3.5 mph - N/A   Unknown
4:52 PM 84.9 °F 83.7 °F 55.9 °F 37% 29.98 in - SW 4.6 mph - N/A   Unknown
5:52 PM 82.9 °F 82.4 °F 57.0 °F 41% 29.98 in - SSE 6.9 mph - N/A   Unknown
6:52 PM 82.0 °F 82.0 °F 57.9 °F 44% 29.96 in - ESE 5.8 mph - N/A   Unknown
7:52 PM 81.0 °F 80.8 °F 55.9 °F 42% 29.96 in - SE 5.8 mph - N/A   Unknown
8:52 PM 77.0 °F - 57.0 °F 50% 29.96 in - Calm Calm - N/A   Unknown
9:52 PM 73.9 °F - 57.0 °F 55% 29.98 in - Calm Calm - N/A   Unknown
10:52 PM 72.0 °F - 57.0 °F 59% 29.98 in - SSE 3.5 mph - N/A   Unknown
11:52 PM 66.9 °F - 57.9 °F 73% 29.99 in - SE 3.5 mph - N/A   Unknown